Location: Delettes
(50.6178°N, 2.2123°E)
Time: 20:38:07
(UTC+00:00)

COSMOS 2487 - Pass Details

Date: 27 February 2020
Orbit: 442 x 445 km, 74.7° (Epoch: 07 April)

Event Time Altitude Azimuth Distance (km) Brightness Sun altitude
Rises 18:34:14 0° 333° (NNW) 2,449 6.5 -11.2°
Reaches altitude 10° 18:36:21 10° 328° (NNW) 1,573 5.6 -11.6°
Maximum altitude 18:39:43 50° 252° (WSW) 571 3.3 -12.1°
Drops below altitude 10° 18:43:03 10° 176° (S) 1,560 5.1 -12.6°
Sets 18:45:08 0° 171° (S) 2,425 6.0 -13.0°
